508  
ASUS45 KSLC 250010  
RWRUT  
 
UTAH REGIONAL WEATHER ROUNDUP  
NATIONAL WEATHER SERVICE SALT LAKE CITY UT  
600 PM MDT WED JUL 24 2024  
 
UTZ101>105-107>111-250100-  
 
NORTHERN UTAH  
 
CITY SKY/WX TMP DP RH WIND PRES REMARKS
 
BRIGHAM CITY MOSUNNY 99 29 8 W3 30.12F HX 93  
HILL AFB MOSUNNY 98 39 12 NW8 30.13F HX 93  
LOGAN MOSUNNY 100 41 13 N9 30.12F HX 95  
OGDEN SUNNY 102 42 13 NW7 30.12F HX 97  
SALT LAKE CITY PTSUNNY 102 37 10 NW8 30.09F HX 96  
TOOELE VALLEY PTSUNNY 97 36 11 N9 30.13S HX 92  
WENDOVER CLOUDY 91 48 22 SW9 30.17S  
HEBER CITY MOSUNNY 94 36 13 W8 30.21F  
WEST JORDAN PTSUNNY 100 31 9 N7 30.15F HX 93  
 

 
 
UTZ024>027-106-112>120-250100-  
 
CENTRAL/NORTHEAST UTAH  
 
CITY SKY/WX TMP DP RH WIND PRES REMARKS
 
PROVO AIRPORT PTSUNNY 95 46 18 W3 30.13F HX 91  
MOAB/CANYONLAN SUNNY 101 32 9 SW7 30.10F HX 95  
DELTA CLOUDY 97 36 11 NE5 30.15F HX 92  
PRICE MOSUNNY 97 34 11 VRB7 30.23F HX 91  
RICHFIELD N/A 91 52 25 S10 30.20F  
ROOSEVELT MOSUNNY 97 39 13 E8 30.19F HX 92  
DUCHESNE CLEAR 95 34 11 E13G18 30.24F HX 90  
VERNAL SUNNY 96 39 13 VRB5 30.19F HX 91  
 

 
 
UTZ121>131-250100-  
 
SOUTHERN UTAH  
 
CITY SKY/WX TMP DP RH WIND PRES REMARKS
 
BRYCE CANYON CLOUDY 73 48 41 W8 30.46S  
CEDAR CITY PTSUNNY 85 52 32 W13 30.26S  
MILFORD CLOUDY 93 54 26 SE15 30.20R HX 91  
PANGUITCH PTCLDY 73 50 43 NE9G23 30.41S  
ST GEORGE SUNNY 104 53 18 W18 30.00F HX 102  
HANKSVILLE MOSUNNY 100 36 10 CALM 30.12F HX 95  
KANAB PTCLDY 97 -18 1 SW17G26 30.21S  
BLANDING MOSUNNY 94 39 14 CALM 30.25F HX 90  
 

 
 
REGIONAL REPORTS COLORADO/ARIZONA  
 
CITY SKY/WX TMP DP RH WIND PRES REMARKS
 
CRAIG, CO N/A 94 38 14 MISG 30.29F  
GRAND JUNCTION SUNNY 99 38 12 SW8 30.14F HX 94  
RIFLE, CO MOSUNNY 97 38 13 E6 30.20F HX 92  
MONTROSE, CO SUNNY 93 35 13 W6 30.26F  
CORTEZ, CO MOSUNNY 93 40 15 E5 30.26F  
COLORADO CITY MOSUNNY 100 55 22 W12G18 30.22F HX 99  
PAGE, AZ MOSUNNY 103 43 13 CALM 30.10F HX 98  
GRAND CANYON CLOUDY 84 46 26 W12G23 30.39S  
KINGMAN, AZ MOSUNNY 104 48 15 W20G28 30.10F HX 100  
FLAGSTAFF, AZ CLOUDY 72 49 44 W7G18 30.45F  
 

 
 
REGIONAL REPORTS NEVADA/IDAHO/WYOMING  
 
CITY SKY/WX TMP DP RH WIND PRES REMARKS
 
LAS VEGAS, NV MOSUNNY 111 53 14 VRB3 29.94F THUNDER HX 109  
ELY, NV LGT RAIN 73 56 54 SW3 30.36F  
ELKO, NV PTSUNNY 95 46 18 SW7 30.16F HX 91  
POCATELLO, ID PTSUNNY 88 48 25 E9 30.18F  
BURLEY, ID CLOUDY 80 70 71 W6 30.15S  
EVANSTON, WY SUNNY 91 31 11 W12G20 30.37F  
ROCK SPRINGS, SUNNY 90 29 11 CALM 30.34F  
KEMMERER, WY MOSUNNY 90 25 9 E6 30.40F  
 

 
 
 
CLICK HERE TO GO TO PREVIOUS BULLETINS.

The Nexlab UT Page Main Text Page